Location: Cheching
(60.0667°N, 164.2167°W)
Time: 08:11:33
(UTC+00:00)

XW-2D - Pass Details

Date: 20 January 2021
Orbit: 505 x 525 km, 97.5° (Epoch: 09 March)

Event Time Altitude Azimuth Distance (km) Brightness Sun altitude
Rises 17:25:23 0° 15° (NNE) 2,670 ? -15.1°
Reaches altitude 10° 17:27:30 10° 15° (NNE) 1,779 ? -14.8°
Maximum altitude 17:31:20 83° 290° (WNW) 538 ? -14.4°
Drops below altitude 10° 17:35:11 10° 201° (SSW) 1,771 ? -13.9°
Sets 17:37:16 0° 200° (SSW) 2,657 ? -13.7°
